Weather History for Cancun, Mexico

Change the Weather History Date:

Tuesday, August 6, 2013

  Actual Average Record
Temperature  
Mean Temperature 82 °F -  
Max Temperature 89 °F 90 °F 96 °F (2002)
Min Temperature 75 °F 73 °F 69 °F (1999)
Cooling Degree Days 17    
Growing Degree Days 32 (Base 50)    
Moisture  
Dew Point 75 °F    
Average Humidity 81    
Maximum Humidity 100    
Minimum Humidity 62    
Precipitation  
Precipitation 0.00 in - - ()
Sea Level Pressure  
Sea Level Pressure 29.99 in    
Wind  
Wind Speed 3 mph ()    
Max Wind Speed 14 mph    
Max Gust Speed -    
Visibility 6.2 miles    
Events      
Averages and records for this station are not official NWS values.
T = Trace of Precipitation, MM = Missing Value Source: Averaged Metar Reports

Daily Weather History Graph

Daily Weather History Graph

Search for Another Location

Airport:

Trip Planner

Search our weather history database for the weather conditions in past years. The results will help you decide how hot, cold, wet, or windy it might be!

Date:

Astronomy

Aug. 06, 2013 Rise Set
Actual Time 6:23 AM CDT 7:23 PM CDT
Civil Twilight 5:59 AM CDT 7:46 PM CDT
Nautical Twilight 5:32 AM CDT 8:14 PM CDT
Astronomical Twilight 5:03 AM CDT 8:42 PM CDT
Moon 6:07 AM CDT (8/6) 7:08 PM CDT (8/6)
Length of Visible Light 13h 46m
Length of Day
12h 59m
Waning Crescent, 0% of the Moon is Illuminated
Aug 6
Waning Crescent
Aug 6
New
Aug 14
First Quarter
Aug 20
Full
Aug 28
Last Quarter

Hourly Weather History & Observations

Time (CDT) Temp. Heat Index Dew Point Humidity Pressure Visibility Wind Dir Wind Speed Gust Speed Precip Events Conditions
12:45 AM 78.8 °F - 77.0 °F 94% 30.01 in 7.0 mi ENE 5.8 mph - N/A   Scattered Clouds
1:44 AM 78.8 °F - 77.0 °F 94% 30.01 in 7.0 mi Calm Calm - N/A   Partly Cloudy
2:43 AM 77.0 °F - 77.0 °F 100% 29.99 in 7.0 mi Calm Calm - N/A   Clear
3:46 AM 77.0 °F - 75.2 °F 94% 29.98 in 7.0 mi Calm Calm - N/A   Clear
4:45 AM 75.2 °F - 75.2 °F 100% 29.98 in 7.0 mi Calm Calm - N/A   Clear
5:44 AM 75.2 °F - 73.4 °F 94% 29.98 in 7.0 mi Calm Calm - N/A   Partly Cloudy
6:43 AM 75.2 °F - 73.4 °F 94% 30.00 in 7.0 mi Calm Calm - N/A   Partly Cloudy
7:49 AM 77.0 °F - 75.2 °F 94% 29.99 in 5.0 mi Calm Calm - N/A   Clear
8:45 AM 84.2 °F 94.1 °F 77.0 °F 79% 29.99 in 5.0 mi Calm Calm - N/A   Clear
9:44 AM 87.8 °F 97.6 °F 75.2 °F 66% 30.01 in 6.0 mi NE 2.3 mph - N/A   Partly Cloudy
10:44 AM 89.6 °F 102.2 °F 77.0 °F 66% 30.01 in 6.0 mi NE 3.5 mph - N/A   Scattered Clouds
11:44 AM 89.6 °F 102.2 °F 77.0 °F 66% 30.01 in 6.0 mi ESE 13.8 mph - N/A   Scattered Clouds
12:40 PM 89.6 °F 99.8 °F 75.2 °F 62% 30.00 in 6.0 mi ESE 11.5 mph - N/A   Scattered Clouds
1:44 PM 89.6 °F 99.8 °F 75.2 °F 62% 30.00 in 6.0 mi NNE 8.1 mph - N/A   Scattered Clouds
2:42 PM 87.8 °F 95.6 °F 73.4 °F 62% 29.99 in 6.0 mi ENE 10.4 mph - N/A   Scattered Clouds
3:53 PM 87.8 °F 99.7 °F 77.0 °F 70% 29.98 in 6.0 mi North 10.4 mph - N/A   Scattered Clouds
4:44 PM 86.0 °F 95.1 °F 75.2 °F 70% 29.98 in 6.0 mi ENE 8.1 mph - N/A   Mostly Cloudy
5:42 PM 84.2 °F 92.3 °F 75.2 °F 74% 29.98 in 6.0 mi ENE 6.9 mph - N/A   Mostly Cloudy
6:47 PM 84.2 °F 92.3 °F 75.2 °F 74% 29.98 in 6.0 mi NE 6.9 mph - N/A   Mostly Cloudy
7:42 PM 82.4 °F 88.2 °F 73.4 °F 74% 29.98 in 6.0 mi ENE 2.3 mph - N/A   Mostly Cloudy
8:45 PM 78.8 °F - 73.4 °F 83% 30.00 in 6.0 mi ENE 2.3 mph - N/A   Mostly Cloudy
9:43 PM 78.8 °F - 75.2 °F 89% 30.00 in 6.0 mi NE 3.5 mph - N/A   Mostly Cloudy
10:47 PM 78.8 °F - 75.2 °F 89% 30.01 in 6.0 mi NE 2.3 mph - N/A   Mostly Cloudy
11:48 PM 75.2 °F - 73.4 °F 94% 30.01 in 6.0 mi Calm Calm - N/A   Mostly Cloudy